Regional Weather Roundup
Issued by NWS

Home | Current Version | Previous Version | Graphics & Text | Print | Product List | Glossary Off
Versions: 1 2 3 4 5 6 7 8 9 10 11 12 13 14 15 16 17 18 19 20 21 22 23 24 25 26 27 28 29 30 31 32 33 34 35 36 37 38 39 40 41 42 43 44 45 46 47 48 49 50

000
ASUS43 KIND 191159
RWRIN

WEATHER ROUNDUP FOR INDIANA
NATIONAL WEATHER SERVICE INDIANAPOLIS IN
800 AM EDT SUN APR 19 2015

NOTE: "FAIR" INDICATES FEW OR NO CLOUDS BELOW 12,000 FEET WITH NO
SIGNIFICANT WEATHER AND/OR OBSTRUCTIONS TO VISIBILITY.

* - STATION DOES NOT REPORT WEATHER SUCH AS PRECIPITATION OR FOG.

+ - STATION NOT QUALITY CONTROLLED BY THE NATIONAL WEATHER SERVICE.
    USE DATA WITH CAUTION...ESPECIALLY DEWPOINT AND RELATIVE
    HUMIDITY OBSERVATIONS.

INZ001>003-010>013-019-020-191300-
NORTHWEST INDIANA

CITY           SKY/WX    TMP DP  RH WIND       PRES   REMARKS
GARY /AIRPORT/ MOCLDY    55  27  33 E12G23    29.86F
RENSSELAER +   PTCLDY    50  37  62 E15       29.85S

$$

LMZ046-743>745-191300-
SOUTHERN LAKE MICHIGAN

STATION/POSITION TIME  TEMP WIND        PRES
                       AIR  DIR/SP/G
                 (UTC) (F)  (DEG/KT/KT) (MB)
BURNS HARBOR     1100   55  120/ 16/ 22 1011.9F
MICHIGAN CITY    1100   54   80/ 13/ 19   N/A
4NW MICH CITY    1100   52  120/ 14/ 17   N/A

$$

INZ004-005-014>016-021>024-191300-
NORTH CENTRAL INDIANA

CITY           SKY/WX    TMP DP  RH WIND       PRES   REMARKS
ELKHART        SUNNY     54  25  32 NE12G17   29.92
GOSHEN         CLOUDY    50  33  52 E16       29.92F
6HR MIN TEMP:  50; 6HR MAX TEMP:  53;

SOUTH BEND     PTSUNNY   54  27  35 E14       29.92F
6HR MIN TEMP:  54; 6HR MAX TEMP:  58;


$$

INZ006>009-017-018-025>027-191300-
NORTHEAST INDIANA

CITY           SKY/WX    TMP DP  RH WIND       PRES   REMARKS
ANGOLA *+      SUNNY     46  32  57 E10       29.95F
FORT WAYNE     CLOUDY    49  34  56 E15       29.93F
6HR MIN TEMP:  48; 6HR MAX TEMP:  52;


$$

INZ028-029-035-036-043>045-051>053-191300-
WEST CENTRAL INDIANA

CITY           SKY/WX    TMP DP  RH WIND       PRES   REMARKS
CRAWFORDSVL +  CLOUDY    55  40  57 E10G16    29.79F
6HR MIN TEMP:  55; 6HR MAX TEMP:  58;

GREENCASTLE +  CLOUDY    59  45  58 E9        29.79F
LAFAYETTE      MOCLDY    51  41  68 E12       29.82F
6HR MIN TEMP:  51; 6HR MAX TEMP:  59;

TERRE HAUTE    CLOUDY    61  48  62 E8        29.76F
6HR MIN TEMP:  59; 6HR MAX TEMP:  64;


$$

INZ030>032-037>040-046>048-054>057-064-065-191300-
CENTRAL INDIANA

CITY           SKY/WX    TMP DP  RH WIND       PRES   REMARKS
FRANKFORT +    MOCLDY    53  41  65 NE14G22   29.84F
6HR MIN TEMP:  52; 6HR MAX TEMP:  58;

INDIANAPOLIS   CLOUDY    61  44  53 E15       29.79F
6HR MIN TEMP:  60; 6HR MAX TEMP:  65;

-EAGLE CREEK   PTSUNNY   56  45  66 E7        29.80F
6HR MIN TEMP:  56; 6HR MAX TEMP:  64;

KOKOMO *+      PTSUNNY   48  39  71 E13       29.86F
6HR MIN TEMP:  48; 6HR MAX TEMP:  54;

MT COMFORT *+  PTSUNNY   55  37  50 E8        29.83F
SHELBYVILLE    CLOUDY    62  46  55 E13       29.80F
6HR MIN TEMP:  61; 6HR MAX TEMP:  63;


$$

INZ033-034-041-042-049-050-058-059-191300-
EAST CENTRAL INDIANA

CITY           SKY/WX    TMP DP  RH WIND       PRES   REMARKS
MUNCIE         PTSUNNY   52  40  63 E13       29.86F
6HR MIN TEMP:  51; 6HR MAX TEMP:  55;


$$

INZ060-061-067>069-081>083-085>088-191300-
SOUTHWEST INDIANA

CITY           SKY/WX    TMP DP  RH WIND       PRES   REMARKS
EVANSVILLE     RAIN      61  56  83 NE5       29.71F
6HR MIN TEMP:  61; 6HR MAX TEMP:  68; 6HR PCP:  0.08;

HUNTINGBURG *+ CLOUDY    61  52  72 E8        29.74S
6HR MIN TEMP:  61; 6HR MAX TEMP:  70;


$$

INZ062-063-066-070>080-084-089>092-191300-
SOUTH CENTRAL AND SOUTHEAST INDIANA

CITY           SKY/WX    TMP DP  RH WIND       PRES   REMARKS
BLOOMINGTON    CLOUDY    64  45  49 SE10      29.77F
6HR MIN TEMP:  58; 6HR MAX TEMP:  65; 6HR PCP: TRACE;

MADISON *+     CLOUDY    63  43  48 E7        29.83S

$$




USA.gov is the U.S. government's official web portal to all federal, state and local government web resources and services.